| time (UTC) | temp C | wind direction | speed KPH | gust KPH | rain 1hr cm | rain 24hr cm | rain mn cm | humidity % | barometer mb |
| 20260506082059 | 12 | 339 | 0.0 | 0.0 | 0.00 | 0.00 | 0.00 | 86 | 1020.4 |
| 20260506081558 | 12 | 343 | 0.0 | 0.0 | 0.00 | 0.00 | 0.00 | 86 | 1020.4 |
| 20260506081055 | 12 | 336 | 0.0 | 0.0 | 0.00 | 0.00 | 0.00 | 86 | 1020.0 |
| 20260506080552 | 12 | 332 | 0.0 | 0.0 | 0.00 | 0.00 | 0.00 | 86 | 1020.4 |
| 20260506073033 | 12 | 336 | 0.0 | 0.0 | 0.00 | 0.00 | 0.00 | 85 | 1020.0 |
| 20260506072530 | 12 | 336 | 0.0 | 0.0 | 0.00 | 0.00 | 0.00 | 85 | 1020.4 |
| 20260506072028 | 12 | 332 | 0.0 | 0.0 | 0.00 | 0.00 | 0.00 | 85 | 1020.0 |
| 20260506071525 | 13 | 334 | 0.0 | 0.0 | 0.00 | 0.00 | 0.00 | 85 | 1020.4 |
| 20260506071022 | 13 | 336 | 0.0 | 0.0 | 0.00 | 0.00 | 0.00 | 85 | 1020.0 |
| 20260506070520 | 13 | 334 | 0.0 | 0.0 | 0.00 | 0.00 | 0.00 | 85 | 1020.0 |
| 20260506062457 | 13 | 332 | 0.0 | 0.0 | 0.00 | 0.00 | 0.00 | 85 | 1019.7 |
| 20260506061953 | 13 | 340 | 0.0 | 0.0 | 0.00 | 0.00 | 0.00 | 85 | 1019.7 |
| 20260506061449 | 13 | 339 | 0.0 | 0.0 | 0.00 | 0.00 | 0.00 | 85 | 1019.3 |
| 20260506060947 | 13 | 338 | 0.0 | 0.0 | 0.00 | 0.00 | 0.00 | 84 | 1019.3 |
| 20260506060446 | 13 | 339 | 0.0 | 0.0 | 0.00 | 0.00 | 0.00 | 84 | 1019.7 |
| 20260506050914 | 14 | 341 | 0.0 | 0.0 | 0.00 | 0.00 | 0.00 | 83 | 1019.3 |
| 20260506050412 | 14 | 343 | 0.0 | 0.0 | 0.00 | 0.00 | 0.00 | 83 | 1019.3 |
| 20260506044902 | 14 | 336 | 0.0 | 0.0 | 0.00 | 0.00 | 0.00 | 81 | 1018.7 |
| 20260506044400 | 14 | 337 | 0.0 | 0.0 | 0.00 | 0.00 | 0.00 | 81 | 1018.7 |
| 20260506043857 | 14 | 346 | 0.0 | 0.0 | 0.00 | 0.00 | 0.00 | 82 | 1018.7 |
| 20260506043354 | 14 | 335 | 0.0 | 0.0 | 0.00 | 0.00 | 0.00 | 82 | 1018.7 |
| 20260506042852 | 14 | 339 | 0.0 | 0.0 | 0.00 | 0.00 | 0.00 | 82 | 1018.3 |
| 20260506042351 | 14 | 339 | 0.0 | 0.0 | 0.00 | 0.00 | 0.00 | 82 | 1018.7 |
| 20260506041849 | 15 | 342 | 0.0 | 0.0 | 0.00 | 0.00 | 0.00 | 82 | 1018.7 |
| 20260506041346 | 15 | 337 | 0.0 | 0.0 | 0.00 | 0.00 | 0.00 | 81 | 1018.7 |
| 20260506040843 | 15 | 338 | 0.0 | 0.0 | 0.00 | 0.00 | 0.00 | 81 | 1018.7 |
| 20260506040341 | 15 | 346 | 0.0 | 0.0 | 0.00 | 0.00 | 0.00 | 80 | 1018.3 |
| 20260506035836 | 15 | 337 | 0.0 | 0.0 | 0.00 | 0.00 | 0.00 | 80 | 1018.3 |
| 20260506035334 | 15 | 336 | 0.0 | 0.0 | 0.00 | 0.00 | 0.00 | 80 | 1018.3 |
| 20260506034831 | 15 | 337 | 0.0 | 0.0 | 0.00 | 0.00 | 0.00 | 79 | 1018.7 |
| 20260506034328 | 15 | 308 | 0.0 | 0.0 | 0.00 | 0.00 | 0.00 | 79 | 1018.3 |
| 20260506033825 | 15 | 339 | 0.0 | 0.0 | 0.00 | 0.00 | 0.00 | 79 | 1018.0 |
| 20260506033322 | 15 | 342 | 0.0 | 0.0 | 0.00 | 0.00 | 0.00 | 79 | 1018.0 |
| 20260506032819 | 15 | 342 | 0.0 | 0.0 | 0.00 | 0.00 | 0.00 | 78 | 1018.0 |
| 20260506032316 | 15 | 295 | 0.0 | 1.6 | 0.00 | 0.00 | 0.00 | 78 | 1018.0 |
| 20260506031813 | 15 | 340 | 1.6 | 1.6 | 0.00 | 0.00 | 0.00 | 78 | 1017.6 |
| 20260506031310 | 15 | 300 | 0.0 | 1.6 | 0.00 | 0.00 | 0.00 | 78 | 1017.6 |
| 20260506030808 | 15 | 338 | 0.0 | 1.6 | 0.00 | 0.00 | 0.00 | 78 | 1017.3 |
| 20260506030306 | 15 | 226 | 3.2 | 3.2 | 0.00 | 0.00 | 0.00 | 77 | 1017.6 |
| 20260506025802 | 15 | 270 | 1.6 | 1.6 | 0.00 | 0.00 | 0.00 | 78 | 1017.6 |
| 20260506025258 | 15 | 297 | 0.0 | 1.6 | 0.00 | 0.00 | 0.00 | 77 | 1017.6 |
| 20260506024756 | 15 | 339 | 0.0 | 1.6 | 0.00 | 0.00 | 0.00 | 77 | 1017.3 |
| 20260506024252 | 15 | 266 | 3.2 | 3.2 | 0.00 | 0.00 | 0.00 | 77 | 1017.3 |
| 20260506023748 | 15 | 337 | 0.0 | 3.2 | 0.00 | 0.00 | 0.00 | 77 | 1017.3 |
| 20260506023246 | 16 | 303 | 3.2 | 4.8 | 0.00 | 0.00 | 0.00 | 76 | 1017.0 |
| 20260506022742 | 16 | 306 | 1.6 | 3.2 | 0.00 | 0.00 | 0.00 | 76 | 1017.0 |
| 20260506022240 | 16 | 318 | 0.0 | 3.2 | 0.00 | 0.00 | 0.00 | 75 | 1017.0 |
| 20260506021738 | 16 | 339 | 0.0 | 1.6 | 0.00 | 0.00 | 0.00 | 75 | 1017.3 |
| 20260506021235 | 16 | 325 | 3.2 | 3.2 | 0.00 | 0.00 | 0.00 | 74 | 1017.0 |
| 20260506020731 | 16 | 315 | 0.0 | 3.2 | 0.00 | 0.00 | 0.00 | 74 | 1017.0 |
| 20260506020229 | 16 | 327 | 1.6 | 4.8 | 0.00 | 0.00 | 0.00 | 74 | 1017.0 |
| 20260506015727 | 16 | 246 | 3.2 | 6.4 | 0.00 | 0.00 | 0.00 | 73 | 1017.0 |
| 20260506015224 | 16 | 268 | 3.2 | 4.8 | 0.00 | 0.00 | 0.00 | 71 | 1017.0 |
| 20260506014721 | 17 | 326 | 0.0 | 1.6 | 0.00 | 0.00 | 0.00 | 69 | 1017.0 |
| 20260506014217 | 17 | 333 | 0.0 | 1.6 | 0.00 | 0.00 | 0.00 | 70 | 1017.0 |
| 20260506013715 | 17 | 313 | 6.4 | 9.7 | 0.00 | 0.00 | 0.00 | 69 | 1016.6 |
| 20260506013212 | 17 | 317 | 1.6 | 3.2 | 0.00 | 0.00 | 0.00 | 70 | 1017.0 |
| 20260506012708 | 16 | 333 | 0.0 | 1.6 | 0.00 | 0.00 | 0.00 | 70 | 1017.0 |
| 20260506012205 | 16 | 298 | 3.2 | 4.8 | 0.00 | 0.00 | 0.00 | 70 | 1016.6 |
| 20260506011702 | 16 | 309 | 3.2 | 4.8 | 0.00 | 0.00 | 0.00 | 69 | 1017.0 |
| 20260506011158 | 16 | 262 | 3.2 | 3.2 | 0.00 | 0.00 | 0.00 | 70 | 1017.0 |
| 20260506010657 | 16 | 238 | 3.2 | 6.4 | 0.00 | 0.00 | 0.00 | 70 | 1017.3 |
| 20260506010154 | 17 | 181 | 3.2 | 3.2 | 0.00 | 0.00 | 0.00 | 69 | 1017.0 |
| 20260506005651 | 17 | 178 | 3.2 | 3.2 | 0.00 | 0.00 | 0.00 | 69 | 1016.6 |
| 20260506005147 | 17 | 311 | 1.6 | 3.2 | 0.00 | 0.00 | 0.00 | 69 | 1017.0 |
| 20260506004643 | 17 | 335 | 1.6 | 6.4 | 0.00 | 0.00 | 0.00 | 67 | 1017.0 |
| 20260506004141 | 17 | 256 | 3.2 | 3.2 | 0.00 | 0.00 | 0.00 | 66 | 1017.0 |
| 20260506003637 | 17 | 258 | 0.0 | 3.2 | 0.00 | 0.00 | 0.00 | 66 | 1017.0 |
| 20260506003133 | 17 | 335 | 0.0 | 3.2 | 0.00 | 0.00 | 0.00 | 66 | 1016.6 |
| 20260506002630 | 17 | 209 | 6.4 | 9.7 | 0.00 | 0.00 | 0.00 | 65 | 1016.6 |
| 20260506002126 | 17 | 303 | 4.8 | 9.7 | 0.00 | 0.00 | 0.00 | 66 | 1016.6 |
| 20260506001621 | 17 | 248 | 3.2 | 6.4 | 0.00 | 0.00 | 0.00 | 66 | 1016.6 |
| 20260506001119 | 17 | 214 | 3.2 | 6.4 | 0.00 | 0.00 | 0.00 | 65 | 1017.0 |
| 20260506000616 | 17 | 279 | 6.4 | 9.7 | 0.00 | 0.00 | 0.00 | 65 | 1016.6 |
| 20260506000113 | 17 | 216 | 4.8 | 6.4 | 0.00 | 0.00 | 0.00 | 63 | 1016.6 |
| 20260505235612 | 17 | 189 | 3.2 | 11.3 | 0.00 | 0.00 | 0.00 | 63 | 1016.6 |
| 20260505235108 | 17 | 306 | 6.4 | 9.7 | 0.00 | 0.00 | 0.00 | 63 | 1017.0 |
| 20260505234605 | 17 | 209 | 6.4 | 6.4 | 0.00 | 0.00 | 0.00 | 63 | 1016.6 |
| 20260505234102 | 17 | 129 | 3.2 | 9.7 | 0.00 | 0.00 | 0.00 | 65 | 1016.6 |
| 20260505233600 | 17 | 286 | 3.2 | 11.3 | 0.00 | 0.00 | 0.00 | 66 | 1017.0 |
| 20260505233057 | 17 | 228 | 6.4 | 11.3 | 0.00 | 0.00 | 0.00 | 67 | 1017.0 |
| 20260505232555 | 17 | 278 | 3.2 | 9.7 | 0.00 | 0.00 | 0.00 | 67 | 1017.0 |
| 20260505232052 | 16 | 274 | 4.8 | 6.4 | 0.00 | 0.00 | 0.00 | 68 | 1016.6 |
| 20260505231548 | 16 | 267 | 8.0 | 9.7 | 0.00 | 0.00 | 0.00 | 68 | 1017.0 |
| 20260505231047 | 16 | 231 | 3.2 | 9.7 | 0.00 | 0.00 | 0.00 | 69 | 1016.6 |
| 20260505230544 | 16 | 275 | 6.4 | 9.7 | 0.00 | 0.00 | 0.00 | 68 | 1017.0 |
| 20260505230041 | 16 | 298 | 1.6 | 4.8 | 0.00 | 0.00 | 0.00 | 69 | 1017.0 |
| 20260505225537 | 16 | 311 | 6.4 | 9.7 | 0.00 | 0.00 | 0.00 | 68 | 1017.0 |
| 20260505225033 | 17 | 110 | 4.8 | 11.3 | 0.00 | 0.00 | 0.00 | 67 | 1017.0 |
| 20260505224531 | 17 | 255 | 8.0 | 11.3 | 0.00 | 0.00 | 0.00 | 66 | 1017.3 |
| 20260505224028 | 17 | 278 | 3.2 | 4.8 | 0.00 | 0.00 | 0.00 | 66 | 1017.0 |
| 20260505223525 | 18 | 193 | 6.4 | 9.7 | 0.00 | 0.00 | 0.00 | 65 | 1017.0 |
| 20260505223021 | 17 | 300 | 1.6 | 9.7 | 0.00 | 0.00 | 0.00 | 64 | 1017.0 |
| 20260505222518 | 17 | 312 | 3.2 | 12.9 | 0.00 | 0.00 | 0.00 | 65 | 1017.3 |
| 20260505222013 | 18 | 237 | 3.2 | 11.3 | 0.00 | 0.00 | 0.00 | 64 | 1017.3 |
| 20260505221511 | 17 | 192 | 6.4 | 11.3 | 0.00 | 0.00 | 0.00 | 65 | 1017.3 |
| 20260505221008 | 18 | 342 | 4.8 | 6.4 | 0.00 | 0.00 | 0.00 | 63 | 1017.3 |
| 20260505220504 | 17 | 258 | 12.9 | 14.5 | 0.00 | 0.00 | 0.00 | 65 | 1017.3 |
| 20260505220002 | 17 | 242 | 9.7 | 16.1 | 0.00 | 0.00 | 0.00 | 64 | 1017.3 |
| 20260505215500 | 17 | 239 | 9.7 | 17.7 | 0.00 | 0.00 | 0.00 | 64 | 1017.3 |
| 20260505214958 | 18 | 277 | 6.4 | 14.5 | 0.00 | 0.00 | 0.00 | 63 | 1017.6 |
| 20260505214456 | 18 | 216 | 8.0 | 11.3 | 0.00 | 0.00 | 0.00 | 63 | 1017.3 |
| 20260505213952 | 18 | 179 | 4.8 | 12.9 | 0.00 | 0.00 | 0.00 | 64 | 1017.3 |
| 20260505213450 | 17 | 289 | 0.0 | 12.9 | 0.00 | 0.00 | 0.00 | 65 | 1017.3 |
| 20260505212946 | 18 | 253 | 11.3 | 20.9 | 0.00 | 0.00 | 0.00 | 65 | 1017.6 |
| 20260505212443 | 18 | 330 | 1.6 | 12.9 | 0.00 | 0.00 | 0.00 | 66 | 1017.6 |
| 20260505211939 | 18 | 209 | 8.0 | 12.9 | 0.00 | 0.00 | 0.00 | 65 | 1017.3 |
| 20260505211437 | 18 | 273 | 1.6 | 12.9 | 0.00 | 0.00 | 0.00 | 64 | 1017.6 |
| 20260505210933 | 18 | 354 | 3.2 | 4.8 | 0.00 | 0.00 | 0.00 | 62 | 1017.6 |
| 20260505210431 | 18 | 247 | 6.4 | 14.5 | 0.00 | 0.00 | 0.00 | 59 | 1017.6 |
| 20260505205927 | 18 | 260 | 9.7 | 14.5 | 0.00 | 0.00 | 0.00 | 60 | 1017.3 |
| 20260505205426 | 18 | 198 | 4.8 | 12.9 | 0.00 | 0.00 | 0.00 | 61 | 1017.6 |
| 20260505204922 | 18 | 237 | 8.0 | 14.5 | 0.00 | 0.00 | 0.00 | 59 | 1017.6 |
| 20260505204420 | 18 | 252 | 8.0 | 16.1 | 0.00 | 0.00 | 0.00 | 59 | 1017.6 |
| 20260505203917 | 18 | 235 | 6.4 | 12.9 | 0.00 | 0.00 | 0.00 | 64 | 1017.3 |
| 20260505203413 | 18 | 170 | 9.7 | 16.1 | 0.00 | 0.00 | 0.00 | 61 | 1017.3 |
| 20260505202910 | 18 | 189 | 9.7 | 16.1 | 0.00 | 0.00 | 0.00 | 62 | 1017.3 |
| 20260505202406 | 18 | 242 | 6.4 | 16.1 | 0.00 | 0.00 | 0.00 | 62 | 1017.3 |
| 20260505201903 | 18 | 283 | 4.8 | 12.9 | 0.00 | 0.00 | 0.00 | 65 | 1017.3 |
| 20260505201400 | 17 | 356 | 6.4 | 14.5 | 0.00 | 0.00 | 0.00 | 67 | 1017.6 |
| 20260505200858 | 17 | 265 | 6.4 | 14.5 | 0.00 | 0.00 | 0.00 | 67 | 1017.6 |
| 20260505200355 | 17 | 235 | 6.4 | 11.3 | 0.00 | 0.00 | 0.00 | 67 | 1017.6 |
| 20260505195850 | 18 | 284 | 3.2 | 12.9 | 0.00 | 0.00 | 0.00 | 65 | 1017.6 |
| 20260505195348 | 18 | 286 | 4.8 | 14.5 | 0.00 | 0.00 | 0.00 | 63 | 1017.6 |
| 20260505194845 | 19 | 238 | 8.0 | 11.3 | 0.00 | 0.00 | 0.00 | 59 | 1017.6 |
| 20260505194342 | 18 | 239 | 3.2 | 6.4 | 0.00 | 0.00 | 0.00 | 64 | 1017.6 |
| 20260505193837 | 18 | 261 | 4.8 | 11.3 | 0.00 | 0.00 | 0.00 | 59 | 1017.6 |
| 20260505193336 | 18 | 287 | 3.2 | 12.9 | 0.00 | 0.00 | 0.00 | 61 | 1017.6 |
| 20260505192833 | 18 | 203 | 8.0 | 11.3 | 0.00 | 0.00 | 0.00 | 63 | 1017.6 |
| 20260505192331 | 18 | 294 | 3.2 | 12.9 | 0.00 | 0.00 | 0.00 | 63 | 1017.6 |
| 20260505191828 | 17 | 278 | 3.2 | 11.3 | 0.00 | 0.00 | 0.00 | 65 | 1017.6 |
| 20260505191327 | 17 | 273 | 3.2 | 12.9 | 0.00 | 0.00 | 0.00 | 62 | 1017.6 |
| 20260505190823 | 18 | 190 | 8.0 | 12.9 | 0.00 | 0.00 | 0.00 | 63 | 1017.6 |
| 20260505190319 | 18 | 306 | 3.2 | 12.9 | 0.00 | 0.00 | 0.00 | 63 | 1017.6 |
| 20260505185815 | 17 | 263 | 4.8 | 12.9 | 0.00 | 0.00 | 0.00 | 65 | 1018.0 |
| 20260505185311 | 18 | 246 | 6.4 | 11.3 | 0.00 | 0.00 | 0.00 | 65 | 1017.6 |
| 20260505184807 | 18 | 261 | 4.8 | 16.1 | 0.00 | 0.00 | 0.00 | 63 | 1017.6 |
| 20260505184305 | 18 | 286 | 6.4 | 6.4 | 0.00 | 0.00 | 0.00 | 64 | 1017.6 |
| 20260505183801 | 18 | 26 | 1.6 | 12.9 | 0.00 | 0.00 | 0.00 | 66 | 1017.6 |
| 20260505183258 | 17 | 217 | 4.8 | 11.3 | 0.00 | 0.00 | 0.00 | 67 | 1017.6 |
| 20260505182755 | 17 | 265 | 4.8 | 11.3 | 0.00 | 0.00 | 0.00 | 66 | 1017.6 |
| 20260505182252 | 17 | 323 | 1.6 | 9.7 | 0.00 | 0.00 | 0.00 | 68 | 1017.6 |
| 20260505181748 | 17 | 260 | 6.4 | 12.9 | 0.00 | 0.00 | 0.00 | 67 | 1017.6 |
| 20260505181246 | 17 | 267 | 8.0 | 11.3 | 0.00 | 0.00 | 0.00 | 66 | 1017.6 |
| 20260505180742 | 17 | 262 | 4.8 | 11.3 | 0.00 | 0.00 | 0.00 | 68 | 1017.6 |
| 20260505180239 | 17 | 302 | 4.8 | 6.4 | 0.00 | 0.00 | 0.00 | 66 | 1017.3 |
| 20260505175735 | 17 | 332 | 1.6 | 3.2 | 0.00 | 0.00 | 0.00 | 67 | 1017.3 |
| 20260505175232 | 17 | 349 | 1.6 | 12.9 | 0.00 | 0.00 | 0.00 | 69 | 1017.6 |
| 20260505174729 | 17 | 311 | 1.6 | 3.2 | 0.00 | 0.00 | 0.00 | 70 | 1017.3 |
| 20260505174226 | 17 | 221 | 6.4 | 9.7 | 0.00 | 0.00 | 0.00 | 70 | 1017.3 |
| 20260505173721 | 18 | 257 | 6.4 | 11.3 | 0.00 | 0.00 | 0.00 | 67 | 1017.3 |
| 20260505173219 | 17 | 280 | 3.2 | 4.8 | 0.00 | 0.00 | 0.00 | 69 | 1017.0 |
| 20260505172715 | 16 | 340 | 1.6 | 6.4 | 0.00 | 0.00 | 0.00 | 70 | 1017.6 |
| 20260505172212 | 17 | 289 | 3.2 | 6.4 | 0.00 | 0.00 | 0.00 | 68 | 1017.3 |
| 20260505171712 | 17 | 261 | 4.8 | 6.4 | 0.00 | 0.00 | 0.00 | 69 | 1017.3 |
| 20260505171210 | 18 | 243 | 4.8 | 9.7 | 0.00 | 0.00 | 0.00 | 67 | 1017.3 |
| 20260505170706 | 17 | 317 | 0.0 | 4.8 | 0.00 | 0.00 | 0.00 | 67 | 1017.0 |
| 20260505170203 | 17 | 349 | 3.2 | 9.7 | 0.00 | 0.00 | 0.00 | 68 | 1017.3 |
| 20260505165658 | 17 | 230 | 3.2 | 11.3 | 0.00 | 0.00 | 0.00 | 68 | 1017.0 |
| 20260505165154 | 18 | 235 | 4.8 | 6.4 | 0.00 | 0.00 | 0.00 | 64 | 1017.0 |
| 20260505164649 | 17 | 307 | 3.2 | 11.3 | 0.00 | 0.00 | 0.00 | 70 | 1017.0 |
| 20260505164147 | 17 | 329 | 3.2 | 6.4 | 0.00 | 0.00 | 0.00 | 70 | 1017.0 |
| 20260505163645 | 17 | 293 | 1.6 | 3.2 | 0.00 | 0.00 | 0.00 | 69 | 1017.0 |
| 20260505163143 | 17 | 241 | 6.4 | 9.7 | 0.00 | 0.00 | 0.00 | 68 | 1017.0 |
| 20260505162640 | 16 | 206 | 3.2 | 3.2 | 0.00 | 0.00 | 0.00 | 69 | 1017.0 |
| 20260505162138 | 16 | 256 | 4.8 | 9.7 | 0.00 | 0.00 | 0.00 | 70 | 1016.6 |
| 20260505161635 | 17 | 331 | 3.2 | 11.3 | 0.00 | 0.00 | 0.00 | 69 | 1016.6 |
| 20260505161132 | 17 | 353 | 3.2 | 4.8 | 0.00 | 0.00 | 0.00 | 68 | 1016.6 |
| 20260505160630 | 17 | 212 | 6.4 | 9.7 | 0.00 | 0.00 | 0.00 | 67 | 1016.6 |
| 20260505160127 | 17 | 356 | 0.0 | 6.4 | 0.00 | 0.00 | 0.00 | 67 | 1016.6 |
| 20260505153107 | 17 | 260 | 3.2 | 4.8 | 0.00 | 0.00 | 0.00 | 69 | 1016.3 |
| 20260505152603 | 17 | 325 | 1.6 | 3.2 | 0.00 | 0.00 | 0.00 | 69 | 1016.6 |
| 20260505152058 | 16 | 265 | 1.6 | 3.2 | 0.00 | 0.00 | 0.00 | 70 | 1016.6 |
| 20260505151554 | 16 | 343 | 0.0 | 1.6 | 0.00 | 0.00 | 0.00 | 72 | 1016.6 |
| 20260505151052 | 16 | 340 | 0.0 | 3.2 | 0.00 | 0.00 | 0.00 | 72 | 1016.3 |
| 20260505150548 | 16 | 317 | 0.0 | 3.2 | 0.00 | 0.00 | 0.00 | 71 | 1016.6 |
| 20260505140513 | 14 | 353 | 0.0 | 0.0 | 0.00 | 0.00 | 0.00 | 88 | 1016.0 |
| 20260505124926 | 13 | 334 | 0.0 | 0.0 | 0.00 | 0.00 | 0.00 | 88 | 1016.0 |
| 20260505124423 | 13 | 334 | 0.0 | 1.6 | 0.00 | 0.00 | 0.00 | 88 | 1016.0 |
| 20260505123919 | 12 | 320 | 0.0 | 0.0 | 0.00 | 0.00 | 0.00 | 88 | 1016.0 |
| 20260505123416 | 12 | 333 | 0.0 | 0.0 | 0.00 | 0.00 | 0.00 | 88 | 1015.6 |
| 20260505122912 | 12 | 335 | 0.0 | 0.0 | 0.00 | 0.00 | 0.00 | 88 | 1015.6 |
| 20260505122409 | 12 | 337 | 0.0 | 0.0 | 0.00 | 0.00 | 0.00 | 88 | 1016.0 |
| 20260505121906 | 12 | 337 | 0.0 | 0.0 | 0.00 | 0.00 | 0.00 | 88 | 1016.0 |
| 20260505121403 | 12 | 337 | 0.0 | 0.0 | 0.00 | 0.00 | 0.00 | 87 | 1016.0 |
| 20260505120859 | 13 | 339 | 0.0 | 0.0 | 0.00 | 0.00 | 0.00 | 87 | 1016.0 |
| 20260505120355 | 13 | 337 | 0.0 | 0.0 | 0.00 | 0.00 | 0.00 | 87 | 1016.0 |
| 20260505115854 | 13 | 335 | 0.0 | 0.0 | 0.00 | 0.00 | 0.00 | 86 | 1016.0 |
| 20260505115351 | 13 | 336 | 0.0 | 0.0 | 0.00 | 0.00 | 0.00 | 86 | 1016.0 |
| 20260505114849 | 13 | 337 | 0.0 | 0.0 | 0.00 | 0.00 | 0.00 | 86 | 1016.0 |
| 20260505114346 | 13 | 321 | 0.0 | 0.0 | 0.00 | 0.00 | 0.00 | 86 | 1016.0 |
| 20260505113842 | 13 | 325 | 0.0 | 0.0 | 0.00 | 0.00 | 0.00 | 86 | 1016.0 |
| 20260505113339 | 13 | 332 | 0.0 | 0.0 | 0.00 | 0.00 | 0.00 | 85 | 1016.0 |
| 20260505112834 | 13 | 307 | 0.0 | 0.0 | 0.00 | 0.00 | 0.00 | 85 | 1016.0 |
| 20260505112332 | 13 | 323 | 0.0 | 0.0 | 0.00 | 0.00 | 0.00 | 85 | 1016.0 |
| 20260505111827 | 13 | 330 | 1.6 | 1.6 | 0.00 | 0.00 | 0.00 | 84 | 1016.0 |
| 20260505111323 | 13 | 336 | 0.0 | 0.0 | 0.00 | 0.00 | 0.00 | 84 | 1016.0 |
| 20260505110819 | 14 | 323 | 0.0 | 0.0 | 0.00 | 0.00 | 0.00 | 83 | 1016.0 |
| 20260505110317 | 14 | 335 | 0.0 | 0.0 | 0.00 | 0.00 | 0.00 | 83 | 1015.6 |
| 20260505101751 | 14 | 330 | 0.0 | 0.0 | 0.00 | 0.00 | 0.00 | 81 | 1016.0 |
| 20260505101247 | 14 | 332 | 0.0 | 0.0 | 0.00 | 0.00 | 0.00 | 81 | 1016.0 |
| 20260505100743 | 15 | 340 | 0.0 | 0.0 | 0.00 | 0.00 | 0.00 | 81 | 1016.0 |
| 20260505100240 | 15 | 341 | 0.0 | 0.0 | 0.00 | 0.00 | 0.00 | 80 | 1016.3 |
| 20260505095736 | 15 | 342 | 0.0 | 0.0 | 0.00 | 0.00 | 0.00 | 79 | 1016.0 |
| 20260505095234 | 15 | 338 | 0.0 | 0.0 | 0.00 | 0.00 | 0.00 | 79 | 1016.0 |
| 20260505094729 | 15 | 334 | 0.0 | 0.0 | 0.00 | 0.00 | 0.00 | 78 | 1016.0 |
| 20260505094226 | 15 | 337 | 0.0 | 0.0 | 0.00 | 0.00 | 0.00 | 78 | 1016.3 |
| 20260505093722 | 15 | 315 | 1.6 | 1.6 | 0.00 | 0.00 | 0.00 | 77 | 1016.6 |
| 20260505093220 | 15 | 317 | 0.0 | 1.6 | 0.00 | 0.00 | 0.00 | 77 | 1016.3 |
| 20260505092716 | 15 | 335 | 0.0 | 0.0 | 0.00 | 0.00 | 0.00 | 77 | 1016.3 |
| 20260505092215 | 15 | 328 | 0.0 | 0.0 | 0.00 | 0.00 | 0.00 | 77 | 1016.6 |
| 20260505091712 | 15 | 331 | 0.0 | 0.0 | 0.00 | 0.00 | 0.00 | 77 | 1016.6 |
| 20260505091210 | 15 | 338 | 0.0 | 0.0 | 0.00 | 0.00 | 0.00 | 76 | 1016.6 |
| 20260505090707 | 15 | 338 | 0.0 | 0.0 | 0.00 | 0.00 | 0.00 | 75 | 1016.6 |
| 20260505090205 | 15 | 343 | 0.0 | 0.0 | 0.00 | 0.00 | 0.00 | 75 | 1016.6 |
| 20260505085702 | 15 | 340 | 0.0 | 0.0 | 0.00 | 0.00 | 0.00 | 76 | 1016.6 |
| 20260505085200 | 15 | 308 | 0.0 | 0.0 | 0.00 | 0.00 | 0.00 | 78 | 1016.6 |
| 20260505084657 | 15 | 336 | 0.0 | 0.0 | 0.00 | 0.00 | 0.00 | 79 | 1016.6 |
| 20260505084156 | 15 | 336 | 0.0 | 0.0 | 0.00 | 0.00 | 0.00 | 80 | 1017.0 |
| 20260505083653 | 14 | 332 | 0.0 | 0.0 | 0.00 | 0.00 | 0.00 | 81 | 1017.0 |
| 20260505083149 | 14 | 343 | 0.0 | 0.0 | 0.00 | 0.00 | 0.00 | 82 | 1017.0 |
| 20260505082646 | 14 | 339 | 0.0 | 0.0 | 0.00 | 0.00 | 0.00 | 84 | 1016.6 |